Dewpoint
73 74 74 75 75 75 75 75 76 75 75 76 77 77 77 77 77 77 76 76 76 76 75 75 75 75 76 76 76 76 76 76 76 76 76 76 75 75 75 75 74 75 75 74 75 75 74 75 75 74 74 75 75 75 75 75 75 75 75 75 75 75 75 75 75 75 76 75 75 75 75 75 75 74 74 74 74 74 74 74 73 73 73 74 75
73 74 74 74 75 75 75 75 76 76 76 76 77 77 77 77 77 76 76 76 76 76 76 76 76 76 76 76 76 76 76 75 75 75 75 75 75 74 74 74 74 75 75 75 75 75 75 75 75 75 75 75 75 75 75 75 75 75 75 75 75 75 75 75 75 75 74 74 75 75 75 75 74 74 74 74 74 74 74 74 75 73 74 74 74
74 74 74 75 74 75 75 76 76 76 77 77 77 76 77 77 77 77 76 76 76 76 76 76 76 76 76 76 75 75 75 75 75 76 75 74 74 74 74 75 75 75 75 75 75 75 75 75 75 75 75 74 75 75 75 75 75 75 75 75 75 74 75 75 74 74 74 74 74 75 75 75 74 74 74 75 75 74 74 75 74 74 73 74 74
73 74 74 75 75 75 75 76 76 76 77 76 76 77 77 76 76 77 77 77 76 76 76 76 76 76 76 75 75 75 75 74 75 75 74 74 74 74 74 74 75 75 75 76 76 75 75 75 75 75 74 75 75 75 75 75 75 74 74 75 75 74 74 74 74 73 73 74 74 74 74 73 73 75 74 75 75 75 74 74 74 74 74 75 75
71 72 73 74 74 75 76 77 76 76 75 76 77 77 76 76 76 76 77 76 77 76 76 76 75 75 75 75 74 75 74 74 75 75 75 74 74 74 74 74 75 75 76 76 75 75 75 75 75 74 75 75 74 74 74 74 74 74 74 74 75 75 75 74 74 73 73 73 74 74 73 72 73 74 75 75 75 74 74 74 74 74 75 75 75
71 72 73 73 73 75 76 76 76 76 76 77 77 76 76 76 76 77 77 76 76 76 75 75 75 75 75 75 75 75 75 75 75 75 75 74 74 74 74 74 75 76 75 76 75 75 75 75 75 75 74 74 74 74 74 74 74 74 74 74 75 75 75 74 74 74 73 73 74 74 74 73 72 73 74 74 74 74 74 74 74 74 75 75 75
71 72 72 72 73 75 76 76 76 76 77 77 76 76 77 77 77 76 76 76 75 75 75 75 75 75 75 75 75 75 74 74 75 75 74 75 75 74 74 74 75 75 75 75 75 75 75 75 75 74 74 74 74 74 74 74 74 74 75 75 74 74 75 74 75 74 73 73 73 74 74 72 72 71 73 74 74 74 74 74 75 75 74 74 74
69 71 71 72 74 76 77 77 76 77 77 76 76 76 76 77 76 76 75 75 75 75 75 75 75 75 75 75 75 74 74 74 75 75 75 75 75 75 74 75 75 75 75 75 75 75 75 75 75 75 75 74 74 74 74 74 74 74 74 74 74 74 74 74 74 74 74 73 73 73 74 74 72 72 74 75 75 75 75 74 74 74 73 74 74
69 70 71 73 74 77 77 77 77 76 76 76 77 77 77 76 75 75 75 75 75 75 75 75 75 75 74 75 75 75 75 75 75 75 75 75 75 75 75 74 74 75 76 75 75 75 75 75 75 74 75 74 74 74 74 74 74 74 75 75 75 74 74 74 74 75 73 73 73 74 75 73 72 72 73 74 75 75 75 74 73 73 73 74 74
69 70 71 73 75 77 76 76 76 76 76 77 77 76 75 75 75 76 76 76 76 76 75 75 75 75 75 75 76 76 75 75 75 74 74 74 74 75 75 74 74 75 76 75 75 74 74 74 74 75 75 74 74 74 74 74 74 74 75 75 75 74 74 74 75 74 73 73 73 73 73 73 72 72 72 73 73 73 73 74 73 73 73 74 74
68 70 71 73 74 77 77 77 77 77 77 76 76 76 76 76 76 76 76 76 76 75 75 75 75 75 75 75 75 75 75 75 75 75 74 74 74 75 75 75 74 75 75 75 75 75 75 74 74 74 74 75 75 74 73 74 74 74 75 75 75 74 74 75 75 73 73 74 73 73 74 74 73 73 74 74 74 73 74 74 74 74 74 74 74
66 67 70 73 77 77 76 76 76 76 76 76 76 76 76 77 77 76 76 76 75 76 76 75 75 75 75 75 75 75 75 75 75 74 75 74 74 75 75 74 74 74 75 75 75 74 74 74 74 75 75 75 75 74 74 74 73 73 74 74 75 75 75 75 73 73 72 72 73 72 72 72 73 73 74 74 74 74 74 74 74 74 74 74 74
66 68 71 73 75 77 76 76 76 76 76 77 76 76 76 77 76 76 76 76 76 75 75 75 75 75 75 75 75 75 75 75 74 75 75 75 75 75 75 74 74 75 75 75 75 74 74 74 74 74 75 75 75 75 74 74 73 73 73 74 74 73 74 74 73 73 72 74 74 74 73 73 73 74 74 74 74 74 74 73 73 73 74 74 74
67 67 69 71 74 77 77 77 77 76 77 77 77 76 76 76 76 76 76 76 76 75 75 75 75 75 75 75 75 75 75 75 75 75 75 75 75 75 75 75 74 74 75 75 74 74 74 74 74 74 75 75 75 75 74 73 74 74 74 73 73 74 75 74 74 73 73 73 74 74 73 74 73 75 74 74 74 74 73 73 73 73 74 74 74
65 67 70 73 74 75 77 77 76 77 77 77 77 77 77 77 76 76 76 76 76 76 75 75 75 76 76 76 75 75 75 75 75 75 75 75 76 75 75 75 75 75 75 75 74 74 74 74 74 75 74 74 74 75 74 73 73 74 74 73 73 73 73 73 73 73 73 74 73 73 73 73 74 74 74 74 73 73 73 73 73 73 73 73 73
65 68 70 72 73 75 75 77 76 76 77 77 77 77 76 76 76 76 76 76 76 75 75 75 75 76 76 76 76 75 75 75 75 75 75 75 75 75 75 75 75 75 75 75 74 74 74 74 74 74 74 74 75 75 74 74 74 74 74 74 74 73 73 73 73 73 73 73 74 74 73 73 74 74 74 73 73 73 73 73 73 73 73 73 73
66 67 69 71 73 73 74 74 75 77 77 77 77 77 76 77 76 76 76 76 76 76 75 75 76 76 76 75 75 75 75 75 75 76 75 75 75 75 74 74 75 75 75 75 74 74 74 74 74 74 74 74 74 74 74 74 73 73 74 74 73 73 73 74 74 73 72 74 73 73 73 73 74 74 73 73 73 73 73 73 73 73 73 73 73
65 66 68 70 71 72 72 73 75 75 76 77 77 77 77 76 76 77 76 76 76 76 76 75 75 75 75 76 75 75 74 76 76 76 75 75 75 75 75 75 76 75 75 74 74 74 74 74 74 75 75 75 74 74 74 73 73 73 73 73 73 73 72 73 72 72 72 73 72 73 74 75 74 74 73 73 74 73 73 73 73 73 73 73 73
65 66 67 68 69 71 72 74 75 75 75 75 76 76 77 77 77 77 76 76 77 76 76 75 75 75 76 75 74 74 75 75 76 75 75 75 76 75 75 75 76 76 75 74 74 74 75 75 75 75 75 75 75 75 74 74 73 73 72 73 73 72 72 72 71 72 73 73 73 73 73 74 74 74 73 73 73 73 73 73 73 73 73 73 73
65 65 66 68 68 71 72 73 74 74 74 74 75 76 76 77 77 77 76 77 76 76 76 75 75 75 75 75 75 75 75 74 75 74 75 76 75 74 75 76 75 75 75 75 75 74 75 75 75 75 75 75 75 75 75 75 74 73 73 73 73 72 73 69 69 70 70 72 73 73 74 74 74 74 73 73 73 73 73 74 73 73 73 73 73
64 65 67 67 68 71 71 72 73 73 72 73 74 75 76 77 77 76 76 77 76 76 75 76 75 75 75 75 75 75 76 75 75 73 74 74 74 74 74 75 75 75 75 75 75 74 75 75 75 75 75 75 75 75 75 74 74 74 73 73 74 72 72 72 67 70 71 72 73 74 75 75 74 74 74 73 73 73 73 74 73 73 73 73 73
63 65 66 66 68 69 71 71 72 71 72 73 73 74 75 75 76 76 76 76 76 75 76 75 76 75 75 75 76 76 75 75 75 75 75 75 74 75 75 75 75 75 75 75 75 75 75 75 75 75 75 75 75 75 76 74 75 75 75 74 73 72 71 71 68 69 70 71 73 74 75 75 75 74 74 74 74 73 73 73 74 74 73 73 73
62 64 65 65 69 70 70 70 71 71 71 72 72 74 74 75 75 75 75 76 76 75 76 76 76 76 76 75 77 75 75 76 78 74 74 75 74 75 75 75 75 75 75 75 75 74 74 73 74 75 75 75 77 79 76 75 75 74 75 75 75 71 70 69 69 69 70 71 73 75 75 74 75 74 74 74 74 74 73 74 74 74 74 74 74
61 63 64 66 68 70 70 70 70 71 72 72 72 73 74 75 74 74 75 75 75 76 75 76 75 76 75 76 75 75 75 77 74 75 75 74 75 75 75 75 75 75 75 75 75 75 74 74 74 75 75 75 76 76 74 75 74 75 76 78 75 73 70 69 69 69 70 72 73 74 74 74 74 74 74 74 74 73 73 74 74 74 74 74 74
62 63 65 66 68 69 70 70 71 71 71 72 71 72 73 73 73 73 74 74 74 75 75 75 75 75 75 76 74 74 73 76 75 75 75 75 75 75 75 75 76 75 74 76 76 75 75 75 75 75 75 74 73 74 73 74 75 73 74 71 70 74 69 70 70 70 71 73 73 74 74 74 74 74 74 74 74 73 73 74 74 74 74 74 74
62 63 65 66 67 68 68 70 71 71 71 71 70 73 74 73 73 73 74 74 74 74 74 75 74 75 75 72 74 73 74 75 76 76 76 77 77 77 76 77 75 75 75 75 76 75 75 73 75 74 74 72 74 73 72 74 74 73 71 71 71 70 70 70 70 71 72 73 74 75 74 74 74 74 74 73 73 74 74 74 74 74 74 74 74
61 63 65 66 66 67 69 69 69 72 72 71 71 73 73 74 74 73 73 73 74 73 73 75 77 77 75 73 73 71 72 74 75 76 76 77 77 77 76 78 77 76 76 77 75 76 75 75 75 75 73 73 70 72 73 72 71 69 73 70 70 71 70 71 71 71 72 73 74 74 74 73 73 73 74 73 73 73 74 74 74 73 73 73 74
63 63 65 66 67 66 69 69 70 72 73 72 72 72 73 73 73 74 73 73 73 72 72 73 74 74 74 73 74 75 73 72 74 75 74 74 75 74 75 77 76 74 75 75 73 74 74 76 75 73 72 72 69 70 70 70 70 72 73 72 73 73 70 70 71 71 72 73 74 74 74 74 73 73 73 73 73 73 73 73 73 73 73 73 74
61 63 64 64 65 66 68 68 70 73 72 72 72 72 72 72 73 72 73 74 73 72 72 72 73 73 72 74 74 71 72 72 73 73 75 75 74 75 76 74 74 74 74 74 74 75 75 75 76 76 75 74 71 71 69 66 70 70 71 71 69 74 69 71 71 70 71 73 74 75 75 74 74 73 73 73 73 73 73 73 73 73 73 73 73
61 62 63 64 64 66 66 68 70 72 71 71 72 71 73 73 73 73 73 75 73 73 72 68 70 70 69 75 73 70 70 70 72 72 73 73 72 73 75 77 77 78 77 74 76 75 75 77 75 74 75 72 74 73 74 67 62 64 68 70 70 66 70 70 71 71 71 72 74 74 75 75 75 74 73 73 73 73 73 73 73 73 73 73 73
61 62 61 63 65 65 65 69 70 74 72 71 72 72 73 73 74 73 73 74 74 73 70 68 67 67 73 78 77 77 76 69 70 72 72 73 73 73 73 74 75 76 76 75 76 77 76 74 75 77 77 77 76 74 72 74 73 66 66 65 67 71 70 70 70 70 69 71 73 74 75 75 75 75 74 73 73 73 73 73 73 73 73 73 73
60 60 61 63 63 63 64 68 70 73 74 70 72 72 73 73 74 73 72 74 76 72 68 67 68 71 75 77 77 77 77 78 77 76 75 76 74 74 75 75 76 75 75 74 76 77 77 76 76 77 76 77 74 74 75 72 68 66 69 65 71 68 71 73 67 68 69 71 72 73 74 74 75 75 75 74 74 73 73 73 73 73 73 73 73
61 59 61 61 62 62 65 67 69 72 72 68 69 71 72 71 74 72 73 73 73 70 69 67 74 74 76 77 78 78 79 78 78 76 76 75 76 75 73 75 75 79 77 75 75 77 77 76 76 76 76 76 73 74 72 71 70 68 70 63 69 69 68 70 66 68 68 70 72 72 73 74 74 75 75 75 74 74 74 74 73 73 73 72 72
61 61 60 60 61 60 65 66 68 69 70 68 72 71 72 71 71 70 73 73 69 68 68 73 74 74 76 77 77 78 79 79 78 78 77 75 76 76 75 75 76 76 77 77 76 76 76 76 74 75 75 75 73 74 74 73 69 73 71 64 69 73 73 69 68 66 68 69 71 72 73 73 74 74 74 75 75 75 74 74 74 74 73 73 73
61 60 59 62 62 62 64 65 69 69 69 70 70 71 71 69 69 71 72 73 69 68 65 71 72 73 74 76 77 78 78 79 79 80 77 77 74 75 74 75 76 77 76 77 78 76 76 75 75 75 74 74 73 75 72 71 67 70 73 72 70 68 69 68 69 68 69 70 72 72 73 73 74 74 74 75 75 75 75 74 74 74 74 74 74
61 62 60 62 61 63 65 65 68 69 69 71 71 71 70 71 69 71 72 73 68 67 67 68 70 71 73 75 77 77 78 79 78 79 78 77 75 76 75 79 77 77 79 78 78 77 77 76 76 74 75 71 71 71 72 74 68 69 68 72 73 74 74 69 72 66 63 67 69 72 73 74 74 74 75 74 74 75 75 75 75 75 74 74 74
60 61 61 63 63 63 67 65 66 67 69 68 71 72 72 71 71 69 68 71 66 65 68 67 68 69 71 73 76 78 78 78 78 78 79 76 76 76 76 77 76 76 78 78 77 77 75 71 78 77 77 77 71 65 70 71 71 66 66 66 67 72 69 79 70 69 65 73 69 64 67 70 74 76 75 74 74 74 75 76 75 75 75 75 75
62 61 61 61 61 64 63 66 67 66 70 69 72 70 71 72 70 69 71 67 64 64 65 68 69 69 72 75 77 77 78 78 79 79 79 76 76 76 76 76 77 78 78 76 77 75 76 74 78 79 75 76 72 70 68 67 68 68 69 62 73 73 72 72 74 72 72 70 73 71 70 69 69 71 74 74 74 75 74 75 76 75 75 75 75
62 62 60 66 63 65 66 69 68 66 68 70 74 71 72 73 69 69 68 71 70 66 66 66 67 70 72 75 77 76 78 79 79 79 79 76 75 77 77 76 77 77 77 76 76 75 75 75 74 76 76 75 74 71 72 69 69 67 61 63 65 72 75 70 76 76 70 69 66 67 65 73 69 71 71 73 74 75 74 74 75 75 75 76 75
64 65 63 66 67 65 67 69 69 65 70 71 72 69 70 69 67 67 66 69 67 68 69 66 66 68 73 74 76 77 78 79 78 79 79 77 77 76 78 75 76 76 77 74 75 76 75 75 75 73 76 75 76 76 70 72 69 67 69 71 72 70 72 73 72 71 71 68 68 74 66 66 71 70 69 72 71 73 74 74 75 74 74 75 76
66 66 64 64 67 63 68 69 69 69 71 71 71 69 70 70 68 65 63 62 70 68 65 66 65 69 73 74 76 75 77 78 78 78 78 77 76 77 76 78 75 75 76 76 74 74 76 77 78 78 74 75 73 71 69 70 71 70 74 72 70 72 68 71 72 70 69 70 67 67 73 65 68 70 71 70 72 70 73 75 75 74 74 75 76
65 66 64 64 66 61 66 68 69 70 71 71 72 70 72 69 67 66 63 62 67 68 68 69 64 69 76 76 76 75 77 78 78 78 79 78 78 76 78 79 77 76 76 76 75 76 77 75 75 76 77 73 73 65 66 69 71 70 68 69 73 71 72 70 64 64 69 69 66 73 70 64 62 63 67 68 72 72 70 72 73 72 75 75 74
64 65 65 65 67 63 69 69 69 70 72 72 73 72 71 70 67 66 64 63 66 66 64 66 67 70 72 75 75 77 77 77 77 77 77 76 78 78 78 79 77 77 77 75 76 77 78 76 75 75 76 75 72 70 74 72 69 69 69 73 68 66 72 75 68 66 63 64 69 64 64 62 64 66 71 69 69 67 69 69 74 74 74 75 75
65 65 64 65 65 65 70 70 70 71 72 73 73 71 71 72 71 71 67 66 66 68 71 70 69 71 71 72 76 77 76 75 74 74 76 76 77 77 78 76 78 78 79 78 77 76 76 76 75 75 74 74 70 69 68 70 71 71 66 72 66 66 66 68 69 68 64 63 61 62 62 63 66 68 74 74 65 70 72 73 71 75 76 74 75
64 66 65 63 63 65 70 71 71 72 72 73 72 72 72 72 72 73 71 70 69 69 67 66 68 71 69 72 73 76 76 75 74 75 75 77 78 79 78 78 79 78 77 77 78 76 75 74 76 77 74 73 70 71 72 65 68 75 73 70 66 66 64 63 59 72 63 65 61 59 66 66 65 70 72 72 70 69 66 68 72 73 74 75 74
65 66 66 65 64 66 70 71 71 72 71 73 72 72 72 70 71 71 69 70 67 67 66 66 63 65 65 68 72 72 73 74 76 75 75 76 78 78 78 77 78 79 77 78 78 77 76 75 74 75 73 75 74 73 68 74 66 76 73 72 71 70 68 69 67 68 72 64 65 61 64 62 61 66 70 69 64 67 70 69 70 71 72 72 73
65 66 67 66 66 67 70 72 71 72 71 73 72 72 72 71 69 68 66 70 68 67 70 66 65 67 68 70 73 73 75 73 73 75 75 77 78 78 78 78 76 77 77 78 78 75 73 73 75 75 75 79 77 75 72 69 73 74 66 63 66 66 65 73 69 71 69 75 69 61 60 61 61 64 65 64 64 64 66 67 68 68 70 72 72
64 65 66 67 68 69 70 71 71 72 72 73 72 72 71 71 70 68 67 70 65 69 69 72 71 69 72 68 70 72 75 75 74 76 76 76 77 78 78 78 78 75 76 76 76 75 78 76 76 78 79 77 77 76 74 73 73 71 69 71 70 66 68 62 69 68 74 70 72 64 60 60 61 60 62 63 60 63 67 69 68 70 70 70 73
64 65 66 68 69 70 71 71 71 72 73 73 72 71 72 72 70 69 70 70 70 70 70 71 72 71 69 73 72 71 75 75 76 75 76 76 77 78 78 78 77 77 77 75 73 72 75 76 79 78 77 78 78 76 76 76 72 70 74 73 70 71 67 62 67 68 73 68 66 65 66 65 64 65 65 60 60 64 65 65 70 66 71 72 72
64 66 66 67 67 70 71 71 71 71 72 73 73 72 72 73 71 70 71 69 71 71 69 70 74 74 73 72 75 75 72 74 74 76 77 76 76 77 77 76 76 72 75 74 74 76 75 77 77 75 77 77 81 77 75 77 73 73 73 74 77 74 71 70 65 66 65 71 66 63 66 65 66 70 71 62 66 66 69 66 67 65 69 71 71
65 65 65 66 67 68 71 70 71 70 72 73 73 71 72 72 71 71 71 70 70 71 70 71 72 73 72 70 73 76 73 73 72 74 75 74 76 76 74 75 75 76 77 77 77 74 71 73 73 77 77 77 79 77 76 77 78 78 73 76 76 70 69 73 75 69 68 69 69 63 60 58 60 66 71 68 72 67 70 70 63 61 72 66 70